GFSGL_925_spd_273.txt.gz
Wind_Speed
18 19 17 16 14 12 11 9 6 5 6 7 10 12 12 12 13 15 16 14 15 12 12 13 14 16 19 18 15 14 15 15 4 11 17 2 5 13 15 16 14 19 18
22 19 17 15 14 11 7 5 3 4 7 11 12 12 12 13 14 14 14 13 10 10 13 17 20 19 18 18 19 16 14 14 15 13 16 10 4 6 7 15 14 14 17
21 21 18 18 15 12 7 2 4 7 11 12 13 13 14 15 16 15 14 9 10 14 18 22 24 23 21 19 17 17 17 17 13 13 15 17 7 10 9 8 10 10 10
25 25 21 17 14 9 4 1 5 9 13 13 13 14 15 16 16 9 7 12 14 17 21 24 24 22 20 20 22 21 18 18 17 13 11 15 11 6 13 14 13 12 13
28 24 21 17 11 6 3 2 6 9 10 10 13 15 15 16 12 13 13 11 15 20 25 26 23 21 20 19 19 20 20 20 17 14 11 10 10 7 8 10 14 14 14
27 27 20 15 10 3 1 4 6 8 10 11 13 17 17 16 18 14 12 13 19 24 24 24 24 23 18 17 16 14 14 18 17 13 8 15 11 10 8 13 12 6 3
26 20 15 10 6 5 3 5 9 9 12 12 13 16 16 17 13 12 17 20 22 24 23 24 25 23 22 20 19 16 15 12 10 12 13 16 22 14 12 9 13 11 10
15 12 14 13 10 8 7 8 8 10 7 8 12 15 14 14 14 20 21 22 20 21 21 21 23 19 17 15 17 17 16 16 14 12 12 14 17 18 11 8 6 14 17
17 17 15 11 10 10 10 13 13 11 11 14 14 14 17 20 19 18 19 18 16 18 18 16 19 14 12 15 13 12 14 17 20 19 16 18 20 21 17 16 13 7 7
19 17 14 10 10 12 13 12 12 15 16 18 18 17 17 18 18 18 17 19 15 17 14 16 19 10 12 14 16 15 15 14 18 23 25 25 24 23 17 14 18 12 10
16 15 14 13 11 10 11 13 17 18 18 17 18 17 16 16 18 15 13 14 15 17 19 18 17 13 17 20 19 20 23 24 24 26 28 28 29 26 20 16 17 19 18
14 14 13 12 12 12 12 16 14 15 16 15 17 17 15 17 17 17 16 17 19 20 21 19 17 18 23 24 20 19 19 20 23 26 27 26 23 22 21 18 14 14 21
16 15 14 15 13 12 15 16 18 16 15 15 16 16 18 17 18 15 19 19 17 19 20 18 16 18 18 23 29 27 23 25 27 25 22 24 22 22 21 21 19 18 16
11 11 13 16 20 20 19 20 19 18 18 18 19 18 18 19 19 17 17 20 23 23 19 14 15 21 26 27 24 23 23 21 19 22 22 21 24 23 21 17 18 15 17
14 15 17 18 19 19 19 21 21 22 21 22 22 19 19 20 20 22 26 28 26 26 27 26 23 22 20 19 19 20 23 20 21 20 20 20 23 18 17 15 16 16 18
15 16 17 18 18 19 20 20 19 18 22 25 25 24 26 27 29 27 26 28 26 25 26 20 19 18 20 18 17 19 20 21 16 20 19 20 19 17 15 16 19 18 16
15 16 17 20 20 20 20 20 22 26 23 23 22 23 24 25 26 32 29 28 26 24 23 21 20 19 19 19 19 21 21 20 19 19 14 18 19 16 14 13 17 15 18
17 16 22 21 20 21 21 22 21 21 22 24 22 22 25 24 24 25 24 24 23 19 21 21 21 21 20 18 19 19 19 19 19 17 16 17 16 14 13 11 12 11 14
19 19 21 20 19 21 21 21 21 21 22 24 25 24 23 25 24 23 22 20 19 20 20 20 20 19 19 19 20 18 17 18 17 15 15 14 13 12 12 12 11 13 12
18 19 21 20 21 21 21 21 21 22 22 22 22 23 25 24 22 21 22 21 19 20 19 19 20 20 19 18 17 17 19 17 17 16 15 15 15 15 14 11 13 15 13
20 22 23 20 20 22 21 22 23 23 23 23 23 25 26 26 24 21 20 21 20 19 19 19 18 17 16 17 16 14 14 17 17 16 15 15 14 14 15 13 13 15 15
19 22 22 23 23 23 23 22 24 24 24 24 25 25 25 22 21 21 21 21 22 22 20 19 19 19 16 14 14 13 13 13 17 17 16 15 14 13 12 10 14 15 12
18 20 21 24 24 25 23 25 25 25 25 25 25 24 24 22 22 22 23 23 23 22 21 19 19 19 18 17 16 16 16 15 12 14 14 14 15 11 9 11 13 13 12
20 19 22 25 25 25 25 27 27 26 26 26 25 25 25 25 24 25 24 23 23 23 23 21 19 18 18 17 16 16 17 17 14 14 13 13 11 10 11 13 16 11 11
20 20 23 26 26 25 27 27 27 28 28 27 27 26 26 26 25 25 25 24 23 23 23 20 19 17 17 17 17 16 15 14 13 13 13 11 12 13 12 16 13 10 10
18 20 23 26 27 27 28 29 28 29 29 29 28 27 28 28 27 27 27 26 26 27 23 18 17 16 13 14 15 14 14 14 13 11 14 13 12 14 12 5 6 6 5

GFSGL_925_spd_276.txt.gz
Wind_Speed
22 20 20 18 17 14 13 11 8 5 5 8 10 11 11 12 12 14 14 13 13 11 12 15 18 20 21 19 18 17 17 16 6 13 16 16 6 16 12 20 19 19 17
23 22 19 18 16 14 11 7 3 3 5 8 10 10 11 13 13 15 17 12 9 11 14 19 21 24 24 21 19 17 16 15 15 13 17 20 8 6 10 16 15 13 16
27 25 25 23 19 15 11 7 2 2 5 6 8 10 12 13 14 16 9 8 10 13 17 20 25 23 22 20 17 19 18 16 15 13 15 18 16 4 8 6 7 13 14
35 32 29 27 22 18 12 8 3 1 4 5 7 10 13 14 13 8 11 11 11 14 18 23 23 19 18 18 19 18 18 18 16 14 14 13 12 13 9 13 12 12 11
36 35 33 28 23 17 11 7 2 2 5 7 8 11 14 15 11 14 12 11 13 17 23 27 21 20 18 16 15 16 15 15 15 15 11 12 9 11 17 9 13 12 14
31 31 30 26 19 16 11 6 3 2 4 6 8 10 14 16 14 6 11 14 19 20 23 23 22 21 19 18 17 15 14 12 12 10 10 8 15 14 12 22 10 4 2
31 29 24 18 14 11 10 7 5 3 4 6 9 12 14 13 8 11 17 18 20 19 19 20 20 18 13 15 15 14 12 9 9 7 8 4 8 11 16 19 16 8 7
29 24 22 21 17 14 10 8 7 7 6 8 11 13 12 13 15 16 16 18 17 16 16 17 15 16 14 14 14 14 12 8 5 5 8 13 14 14 17 17 15 16 16
26 26 22 15 12 10 9 9 9 9 10 12 14 15 16 15 16 16 17 16 17 17 14 13 16 19 14 15 14 14 15 13 13 14 15 13 14 18 18 20 15 15 15
19 20 17 12 11 10 9 9 10 12 11 12 14 14 15 17 15 16 17 15 16 15 14 14 18 18 17 15 17 16 16 20 23 26 26 24 21 18 17 16 15 12 17
17 20 17 13 12 11 10 12 11 12 14 14 15 15 16 14 15 16 15 18 17 18 19 19 18 17 19 18 19 17 16 21 24 22 22 23 25 26 23 15 16 14 20
16 16 15 14 14 14 13 12 12 13 14 13 15 15 16 16 18 18 19 17 17 20 20 21 20 17 18 21 20 21 23 25 24 25 25 23 20 19 16 12 16 15 17
16 17 16 16 17 16 14 13 15 15 14 15 15 15 18 19 21 22 22 19 20 16 17 21 23 21 21 23 24 30 29 23 22 22 22 20 18 14 14 16 13 10 13
18 15 14 13 13 13 14 14 16 16 17 15 14 16 17 18 18 20 21 21 22 24 24 26 26 25 25 25 28 24 19 22 19 20 23 21 17 14 15 12 14 14 13
14 14 14 15 16 17 17 18 16 16 16 18 19 20 20 20 20 22 25 26 25 26 27 26 20 21 20 21 22 21 21 19 22 17 17 17 16 13 12 10 11 8 10
14 14 15 18 20 18 18 18 17 17 19 19 20 21 25 25 25 24 25 27 26 24 25 21 18 18 19 20 20 19 19 19 21 19 15 15 14 13 11 10 10 10 9
13 18 20 20 17 18 19 17 19 22 19 19 20 21 21 23 27 28 27 27 25 23 20 19 19 19 19 20 20 19 19 19 19 19 16 13 13 12 10 8 7 8 9
17 18 18 17 17 18 17 17 18 19 22 24 22 23 24 23 24 24 24 24 21 18 18 19 19 18 19 18 19 18 19 18 17 16 15 13 11 9 9 9 6 7 7
14 16 19 18 16 17 17 18 18 18 20 23 25 24 24 26 25 24 22 21 19 19 18 18 20 19 19 19 19 18 18 17 16 15 13 11 10 9 9 10 7 7 9
15 17 19 21 17 19 20 19 20 20 20 22 22 24 26 26 22 22 20 20 18 19 19 20 19 17 19 19 17 16 16 16 17 17 16 14 12 11 11 9 10 11 12
18 19 21 24 21 19 21 21 21 22 21 23 23 24 27 26 24 22 21 20 20 20 20 19 19 19 16 16 18 18 16 15 15 15 16 13 13 11 11 10 12 12 12
18 19 23 27 26 21 23 22 21 21 23 24 25 24 25 23 22 22 22 22 22 20 20 19 19 19 17 16 15 14 13 12 11 14 16 15 13 12 11 12 11 12 13
20 21 24 28 28 24 21 23 22 23 24 25 25 25 24 23 23 23 24 24 22 21 20 20 20 19 17 18 16 16 16 16 15 14 14 14 13 12 13 11 10 12 12
19 21 24 27 26 25 22 23 24 24 25 25 25 25 24 26 25 26 26 26 24 21 20 20 20 20 19 16 16 16 17 16 16 16 12 11 11 12 8 7 11 14 14
19 23 24 28 27 26 25 24 24 25 25 26 26 26 26 27 26 26 27 27 26 23 23 21 19 18 18 16 15 16 15 15 15 16 14 14 14 12 9 11 13 15 16
21 21 23 28 28 27 26 26 25 26 27 28 28 27 27 27 27 27 28 27 27 28 24 19 16 12 14 16 12 14 15 15 17 13 13 15 13 10 11 14 13 17 15

GFSGL_925_spd_279.txt.gz
Wind_Speed
33 32 31 29 27 25 21 18 14 10 5 6 8 9 10 11 11 12 13 9 7 8 11 15 18 21 23 22 19 15 15 15 6 18 24 25 26 23 14 13 8 11 15
34 33 30 28 24 23 21 17 12 9 5 4 6 8 10 11 11 13 9 6 7 10 13 17 22 25 23 19 18 16 15 14 13 15 25 28 26 24 13 14 13 11 9
33 32 31 28 25 22 19 15 13 9 6 4 3 5 8 9 10 7 6 6 7 8 13 18 23 21 20 18 17 18 17 16 15 16 20 23 24 19 19 11 9 10 11
34 33 32 30 27 22 17 15 11 8 6 5 3 4 7 8 7 7 6 6 7 9 13 17 20 17 17 19 18 16 17 17 16 17 18 20 19 18 15 15 10 7 9
35 34 35 32 25 20 16 13 10 8 7 5 2 3 5 6 7 6 3 4 7 12 15 17 16 16 13 13 14 14 15 16 17 17 15 16 15 18 17 18 14 14 13
30 32 33 27 24 19 13 8 6 6 4 3 1 3 5 7 7 1 5 9 11 12 14 14 14 13 12 11 12 12 11 13 14 14 12 11 12 14 16 18 17 5 3
19 16 22 24 19 15 13 11 6 2 1 1 3 6 7 7 5 8 10 11 12 13 11 12 11 12 13 14 13 14 12 7 7 9 8 8 12 15 20 19 17 16 6
22 24 25 23 21 17 13 9 7 4 7 9 10 11 12 13 10 10 10 12 11 11 10 11 11 12 13 15 14 13 15 8 7 9 11 14 15 17 18 20 20 19 15
27 31 29 23 16 8 6 6 5 7 9 11 12 14 12 11 12 11 13 14 14 13 11 10 11 12 16 15 14 15 15 10 10 15 18 18 20 19 18 20 22 17 8
26 24 18 15 15 9 6 6 6 5 6 9 8 8 11 13 13 12 13 15 13 16 14 13 13 14 16 16 14 14 17 18 22 26 27 26 21 21 21 17 16 16 11
23 22 16 14 11 5 1 5 3 4 6 7 8 10 11 13 14 16 16 17 17 17 15 15 16 15 15 16 15 15 14 17 23 26 27 26 23 21 19 18 15 16 16
23 19 15 12 5 4 3 5 5 9 11 11 12 14 16 17 18 19 19 20 20 18 20 20 17 15 18 19 18 18 19 20 27 28 25 23 20 18 16 12 12 14 16
15 11 10 8 7 7 9 9 9 11 13 15 14 13 15 17 19 20 21 21 20 20 19 19 23 20 22 22 21 21 23 23 22 20 22 22 19 17 17 14 13 14 14
14 12 15 11 11 9 8 11 14 14 13 13 14 15 17 19 19 19 18 18 20 21 21 21 20 23 24 25 24 23 20 17 17 20 21 22 20 17 16 14 14 10 11
17 16 18 16 15 15 13 12 11 11 15 18 18 17 17 18 18 19 18 18 20 21 23 24 21 19 18 17 17 19 19 19 17 19 20 17 16 16 15 12 12 10 9
19 18 15 13 11 9 11 11 12 16 16 14 16 17 21 20 23 27 26 26 26 25 23 17 17 17 17 17 17 17 16 17 17 18 18 17 14 13 16 14 11 12 11
18 16 17 14 13 13 15 17 20 17 14 17 17 18 18 21 22 23 23 23 23 21 18 18 18 17 17 17 17 16 16 16 16 15 15 15 13 12 12 12 11 9 10
14 16 18 18 19 19 20 17 15 18 21 21 22 22 20 20 21 23 21 20 18 16 17 17 16 16 17 17 16 16 16 16 15 14 14 15 15 13 11 10 9 10 7
20 22 24 23 19 18 17 15 15 16 18 20 23 22 22 23 23 19 20 17 17 16 17 16 18 17 17 18 17 17 16 15 14 12 13 12 13 12 9 9 8 8 8
19 21 21 17 16 14 16 16 16 17 18 20 20 23 25 25 22 21 18 18 18 18 19 19 19 20 19 17 17 17 16 15 14 14 14 14 12 11 11 12 11 12 11
14 13 17 21 20 19 16 17 18 19 18 20 21 23 26 25 23 21 21 20 20 21 21 20 19 20 19 18 17 15 16 16 15 14 13 12 10 10 11 11 12 13 13
16 19 21 23 23 23 20 18 19 19 20 21 24 24 25 22 21 22 22 22 23 23 20 21 20 21 20 19 17 16 15 13 13 12 10 12 11 10 12 12 12 13 12
19 20 23 25 24 25 25 23 20 20 22 23 24 25 24 23 23 23 23 25 25 23 21 20 21 21 20 21 17 17 16 16 14 12 13 11 11 11 12 12 12 11 10
21 20 23 26 26 26 25 25 25 22 23 23 25 24 25 25 25 26 26 26 26 25 23 21 20 22 21 20 21 17 17 16 15 14 13 14 9 10 12 12 12 11 11
23 20 23 26 26 26 27 27 26 24 23 24 25 25 26 26 26 26 26 26 27 26 26 25 22 20 19 18 18 19 17 15 15 15 15 16 13 13 10 8 9 10 11
23 20 22 26 27 27 27 28 28 28 25 26 26 27 27 28 28 28 28 28 28 29 28 24 21 19 15 15 16 18 11 16 13 13 13 16 14 14 13 11 12 12 11

GFSGL_925_spd_285.txt.gz
Wind_Speed
24 24 26 25 27 25 20 21 23 24 16 13 12 11 8 6 4 4 4 3 2 1 4 7 9 11 12 13 12 11 11 12 14 23 19 22 21 19 16 17 14 12 8
29 32 34 36 34 29 25 20 20 18 15 13 12 9 7 5 5 5 4 3 1 2 5 8 11 13 14 13 12 12 12 12 14 19 20 21 20 19 15 13 14 11 10
28 30 31 32 31 32 29 25 22 18 15 11 9 7 6 5 4 2 0 1 2 3 5 7 9 11 13 13 13 14 14 14 14 16 18 17 19 18 22 12 11 12 9
30 31 27 34 34 31 31 27 22 15 12 10 7 6 4 4 2 1 3 3 5 6 7 9 10 11 10 11 11 12 12 14 14 16 16 15 15 13 15 17 15 14 12
23 25 24 27 22 23 23 20 17 14 10 8 6 4 3 2 2 3 3 4 7 10 11 10 9 9 7 8 8 10 11 13 14 14 14 11 11 13 15 17 15 14 11
18 18 17 20 22 23 23 19 16 15 12 8 5 3 3 4 7 5 5 7 9 10 11 9 8 7 6 8 8 10 9 11 13 14 17 11 7 8 13 15 14 15 7
17 15 15 18 18 18 15 13 12 11 9 6 2 3 5 5 7 9 9 9 10 11 9 9 11 10 9 10 11 11 9 7 5 4 5 13 14 9 13 16 14 15 15
16 14 16 21 21 21 20 18 15 11 8 5 2 5 9 7 7 9 11 12 12 13 12 12 12 12 11 12 13 15 15 13 10 7 5 6 11 12 11 14 16 19 19
24 24 24 26 29 28 22 16 12 4 1 1 1 4 10 7 8 9 8 11 14 12 15 13 14 14 13 12 15 18 17 16 15 14 16 17 16 18 16 17 19 17 16
26 29 29 27 24 21 20 10 12 7 1 3 4 6 8 10 9 10 10 12 15 15 15 14 14 14 15 15 14 18 19 17 16 19 18 19 18 17 17 14 16 17 16
30 29 26 22 20 17 13 11 8 5 3 7 8 7 11 11 10 12 14 12 15 16 18 17 16 14 16 17 16 17 18 20 22 22 21 19 17 16 13 11 11 14 16
28 26 23 20 18 12 13 9 5 2 4 6 9 8 8 11 8 12 16 16 15 17 18 19 18 17 17 15 16 19 22 20 21 20 19 18 16 16 13 11 12 14 16
29 24 19 17 15 13 8 5 3 3 4 9 10 11 11 11 10 11 12 14 14 15 17 20 24 24 23 22 24 24 24 22 23 20 18 18 15 15 16 14 13 13 16
25 19 13 10 10 9 7 8 6 6 7 7 10 11 11 11 10 8 13 17 18 16 17 19 23 26 28 29 31 27 23 21 21 19 18 16 14 14 15 12 12 11 13
18 14 9 6 10 9 6 3 3 2 4 6 8 10 14 14 12 16 19 19 18 18 22 20 21 19 19 23 23 21 20 16 16 15 15 15 14 13 14 12 12 11 12
16 13 8 10 10 8 5 3 3 5 6 7 9 10 12 14 18 19 21 21 20 18 17 17 18 18 18 20 18 18 16 16 15 13 13 13 13 12 14 11 9 12 10
15 15 12 13 12 11 10 10 12 12 14 12 14 14 14 16 18 20 21 19 19 16 14 13 15 19 20 18 17 14 14 15 13 12 12 12 12 12 13 13 10 8 11
15 15 12 11 11 12 13 13 13 13 14 13 12 15 14 17 19 21 17 16 14 11 15 16 18 19 17 16 16 14 13 13 11 11 11 11 12 12 13 13 10 8 8
15 15 16 16 15 14 13 12 12 13 14 16 17 15 15 18 20 16 15 13 13 15 16 16 17 17 17 16 15 15 13 13 11 10 10 11 11 11 12 13 12 8 7
18 18 17 15 13 14 15 15 15 15 16 15 16 17 17 19 16 14 13 13 15 16 16 17 16 16 16 15 14 14 13 12 12 10 12 11 11 11 11 10 10 8 8
21 18 18 15 14 14 15 15 15 15 15 16 17 16 20 19 17 16 16 16 16 18 17 17 17 17 16 15 14 13 13 13 12 12 11 11 11 11 11 10 10 8 8
19 17 16 15 14 14 14 13 15 16 16 18 19 19 21 17 16 16 16 16 16 18 18 17 18 17 16 16 14 13 14 12 13 11 11 13 12 11 9 7 8 7 7
18 16 15 14 14 16 15 14 14 15 17 18 19 19 19 18 18 18 18 18 19 21 18 17 18 17 15 15 14 14 15 15 14 10 12 10 9 7 8 9 8 8 7
12 12 13 14 14 14 14 16 16 17 18 18 19 19 18 19 19 19 20 20 20 19 18 18 18 18 17 16 15 14 14 14 14 12 12 12 7 10 8 9 9 9 8
13 12 12 12 13 14 15 16 16 17 18 19 20 19 19 19 20 20 20 19 19 19 19 20 20 18 17 15 16 17 17 17 17 16 10 10 12 11 9 7 9 8 9
14 14 13 13 14 15 16 17 18 19 20 21 21 20 20 20 20 20 21 21 21 23 24 20 19 20 19 17 16 16 16 16 16 17 14 10 10 11 10 9 6 6 6

GFSGL_925_spd_291.txt.gz
Wind_Speed
19 16 22 23 24 26 23 22 23 24 24 23 20 20 16 13 11 8 6 7 4 3 1 3 6 6 8 11 11 11 14 15 15 22 24 23 22 17 17 16 19 18 17
22 19 20 24 25 24 25 25 26 25 23 22 20 18 16 13 11 11 9 6 3 2 2 5 7 9 11 11 12 13 15 16 16 17 22 23 22 17 17 16 18 18 17
24 24 22 21 20 24 26 26 25 24 23 21 20 18 16 13 12 9 7 6 3 2 2 5 7 9 10 10 11 14 14 15 16 18 21 21 18 14 15 17 19 22 21
21 23 24 24 25 24 25 25 24 22 22 20 18 16 14 12 9 8 7 5 2 1 4 6 7 9 9 9 12 12 13 15 17 17 17 17 16 15 17 20 21 22 22
19 19 23 25 24 24 23 22 23 22 20 19 18 15 13 10 6 7 4 2 2 3 5 7 7 6 12 9 6 11 12 15 17 18 19 18 16 16 15 16 19 20 21
19 23 24 23 24 23 23 23 22 20 20 18 16 14 12 9 7 3 3 2 2 5 7 8 9 11 11 7 11 8 11 9 10 14 17 17 16 15 16 17 20 21 16
16 22 21 19 21 21 21 22 20 20 17 15 13 12 10 7 3 2 2 2 5 5 7 9 11 10 11 11 13 11 12 17 15 11 14 14 15 12 13 17 22 23 23
15 17 21 19 20 21 21 20 19 18 16 16 14 10 7 4 3 3 3 3 6 7 8 9 12 12 12 9 11 14 16 16 13 10 13 15 14 13 16 21 24 27 27
18 16 15 18 21 22 24 24 22 22 18 14 10 7 5 1 1 2 3 6 7 9 10 11 12 13 15 16 14 16 16 16 15 12 11 14 18 21 21 20 21 20 20
24 28 29 31 30 28 25 23 18 14 13 9 8 6 4 2 4 5 5 8 10 10 10 10 6 8 11 4 8 14 17 17 18 16 16 19 19 19 19 21 21 21 19
30 30 33 31 30 28 25 21 20 15 9 8 5 3 0 2 4 6 5 8 10 11 11 11 5 9 8 9 11 13 18 21 20 23 21 20 17 16 17 18 17 18 22
39 36 30 29 24 24 24 17 16 12 8 3 3 2 2 2 2 1 4 8 11 11 13 13 15 20 20 23 23 22 24 24 23 24 22 19 17 15 16 18 18 19 20
27 28 25 23 22 17 18 12 13 12 8 4 1 3 4 2 1 4 8 11 10 11 12 15 21 24 24 21 18 17 18 16 16 20 19 17 15 14 14 18 19 21 19
25 22 25 17 18 12 9 10 11 10 9 7 6 4 4 3 4 6 9 12 13 12 13 15 19 21 18 17 16 17 14 15 15 15 16 15 15 15 14 16 17 16 19
16 11 7 15 11 13 9 9 11 12 8 5 7 7 8 7 9 13 14 14 14 15 20 17 15 14 14 12 11 11 10 12 13 12 14 14 14 13 13 14 14 15 17
14 12 12 14 12 12 8 4 7 10 9 9 8 8 7 9 12 15 16 17 18 17 14 14 14 14 12 12 12 13 12 12 11 10 11 10 14 13 12 12 12 15 15
21 19 15 15 12 11 8 9 8 4 2 3 8 8 11 12 16 19 20 19 17 12 12 15 13 14 13 11 12 12 14 13 11 12 10 9 11 12 12 12 12 15 14
21 18 14 10 11 9 9 9 9 10 9 7 7 10 9 15 21 20 15 16 14 8 12 14 13 13 13 13 12 12 13 13 12 10 10 9 9 11 11 11 12 14 15
18 18 14 12 12 10 11 10 10 9 10 9 9 9 12 16 22 17 11 8 12 12 12 13 13 13 14 14 14 13 13 13 12 12 11 9 10 10 11 11 13 17 17
13 19 15 14 14 14 14 12 12 11 11 12 12 10 13 22 18 16 15 15 14 14 14 14 14 14 15 16 16 15 14 13 12 12 10 9 9 11 12 12 14 14 15
16 15 13 13 13 13 13 15 15 14 15 16 16 12 20 17 15 16 16 16 16 16 15 15 15 16 17 17 16 15 15 14 13 12 11 10 10 13 13 14 13 14 15
20 19 17 16 17 17 17 16 16 17 17 17 17 18 22 18 18 17 18 18 17 16 16 16 17 17 17 17 16 16 16 15 14 13 12 11 12 12 14 14 14 12 13
24 23 21 20 19 19 20 19 19 20 20 20 20 21 22 22 21 21 20 19 18 18 17 17 18 18 17 18 16 16 17 16 14 12 12 11 12 10 12 13 13 13 11
26 26 25 24 23 22 22 22 21 21 22 22 22 22 23 24 24 24 23 21 20 19 19 19 19 21 22 21 19 18 18 17 14 13 13 11 12 13 12 10 10 11 11
25 25 24 23 22 22 22 22 23 23 23 24 24 25 25 26 26 25 24 23 22 22 23 24 25 24 23 21 21 20 20 20 19 17 13 13 13 16 13 11 11 12 14
25 23 23 23 22 22 22 22 23 24 24 25 25 26 26 28 27 27 26 25 24 26 27 25 23 23 22 22 22 21 21 22 21 22 20 17 17 16 15 14 14 14 10